Time,TemperatureF,DewpointF,PressureIn,WindDirection,WindDirectionDegrees,WindSpeedMPH,WindSpeedGustMPH,Humidity,HourlyPrecipIn,Conditions,Clouds,dailyrainin,SolarRadiationWatts/m^2,SoftwareType,DateUTC
2013-05-19 00:00:00,59.8,33.9,29.61,South,172,0.0,-999.0,28,-99.99,,,0.00,0.0,cwc,2013-05-19 06:00:00,
2013-05-19 00:05:00,59.9,34.0,29.62,WSW,240,1.0,-999.0,28,-99.99,,,0.00,0.0,cwc,2013-05-19 06:05:00,
2013-05-19 00:10:00,60.1,34.5,29.62,WSW,249,3.0,-999.0,29,-99.99,,,0.00,0.0,cwc,2013-05-19 06:10:00,
2013-05-19 00:15:00,60.1,34.5,29.62,WNW,294,0.0,-999.0,29,-99.99,,,0.00,0.0,cwc,2013-05-19 06:15:00,
2013-05-19 00:20:00,60.1,34.9,29.62,SW,226,1.0,-999.0,30,-99.99,,,0.00,0.0,cwc,2013-05-19 06:20:00,
2013-05-19 00:30:00,59.7,34.9,29.63,SW,215,2.0,-999.0,31,-99.99,,,0.00,0.0,cwc,2013-05-19 06:30:00,
2013-05-19 00:35:00,59.5,34.7,29.63,SW,215,0.0,-999.0,31,-99.99,,,0.00,0.0,cwc,2013-05-19 06:35:00,
2013-05-19 00:40:00,59.3,35.2,29.63,SW,215,0.0,-999.0,33,-99.99,,,0.00,0.0,cwc,2013-05-19 06:40:00,
2013-05-19 00:45:00,59.0,34.9,29.63,SW,215,0.0,-999.0,33,-99.99,,,0.00,0.0,cwc,2013-05-19 06:45:00,
2013-05-19 00:50:00,59.0,35.2,29.62,SW,216,0.0,-999.0,34,-99.99,,,0.00,0.0,cwc,2013-05-19 06:50:00,
2013-05-19 00:55:00,58.9,35.1,29.62,SW,216,0.0,-999.0,34,-99.99,,,0.00,0.0,cwc,2013-05-19 06:55:00,
2013-05-19 01:00:00,58.6,34.8,29.62,SW,215,0.0,-999.0,34,-99.99,,,0.00,0.0,cwc,2013-05-19 07:00:00,
2013-05-19 01:10:00,58.2,34.8,29.62,SW,216,0.0,-999.0,35,-99.99,,,0.00,0.0,cwc,2013-05-19 07:10:00,
2013-05-19 01:15:00,58.0,34.6,29.62,SW,216,0.0,-999.0,35,-99.99,,,0.00,0.0,cwc,2013-05-19 07:15:00,
2013-05-19 01:20:00,57.8,34.4,29.62,SW,216,0.0,-999.0,35,-99.99,,,0.00,0.0,cwc,2013-05-19 07:20:00,
2013-05-19 01:25:00,57.5,34.1,29.62,SW,215,0.0,-999.0,35,-99.99,,,0.00,0.0,cwc,2013-05-19 07:25:00,
2013-05-19 01:30:00,57.3,34.3,29.62,SW,216,0.0,-999.0,36,-99.99,,,0.00,0.0,cwc,2013-05-19 07:30:00,
2013-05-19 01:35:00,57.2,34.2,29.62,SW,216,0.0,-999.0,36,-99.99,,,0.00,0.0,cwc,2013-05-19 07:35:00,
2013-05-19 01:40:00,57.0,34.0,29.62,SW,215,0.0,-999.0,36,-99.99,,,0.00,0.0,cwc,2013-05-19 07:40:00,
2013-05-19 01:45:00,56.8,33.8,29.62,SW,216,0.0,-999.0,36,-99.99,,,0.00,0.0,cwc,2013-05-19 07:45:00,
2013-05-19 01:50:00,56.6,33.6,29.62,SW,216,0.0,-999.0,36,-99.99,,,0.00,0.0,cwc,2013-05-19 07:50:00,
2013-05-19 01:55:00,56.4,33.0,29.62,SW,216,0.0,-999.0,35,-99.99,,,0.00,0.0,cwc,2013-05-19 07:55:00,
2013-05-19 02:00:00,56.1,33.4,29.62,SW,215,0.0,-999.0,37,-99.99,,,0.00,0.0,cwc,2013-05-19 08:00:00,
2013-05-19 02:05:00,55.7,33.0,29.62,SW,215,0.0,-999.0,37,-99.99,,,0.00,0.0,cwc,2013-05-19 08:05:00,
2013-05-19 02:10:00,55.3,32.6,29.62,SW,216,0.0,-999.0,37,-99.99,,,0.00,0.0,cwc,2013-05-19 08:10:00,
2013-05-19 02:15:00,54.8,32.5,29.62,SW,216,0.0,-999.0,38,-99.99,,,0.00,0.0,cwc,2013-05-19 08:15:00,
2013-05-19 02:20:00,54.3,32.0,29.62,SW,215,1.0,-999.0,38,-99.99,,,0.00,0.0,cwc,2013-05-19 08:20:00,
2013-05-19 02:25:00,54.0,31.7,29.63,SW,216,0.0,-999.0,38,-99.99,,,0.00,0.0,cwc,2013-05-19 08:25:00,
2013-05-19 02:30:00,53.6,31.6,29.62,SW,216,0.0,-999.0,39,-99.99,,,0.00,0.0,cwc,2013-05-19 08:30:00,
2013-05-19 02:35:00,53.5,31.5,29.63,SW,215,0.0,-999.0,39,-99.99,,,0.00,0.0,cwc,2013-05-19 08:35:00,
2013-05-19 02:40:00,53.2,31.2,29.62,SW,215,2.0,-999.0,39,-99.99,,,0.00,0.0,cwc,2013-05-19 08:40:00,
2013-05-19 02:45:00,53.3,31.3,29.62,SW,216,1.0,-999.0,39,-99.99,,,0.00,0.0,cwc,2013-05-19 08:45:00,
2013-05-19 02:50:00,53.4,31.8,29.63,SW,216,0.0,-999.0,40,-99.99,,,0.00,0.0,cwc,2013-05-19 08:50:00,
2013-05-19 02:55:00,53.5,31.5,29.62,SW,215,1.0,-999.0,39,-99.99,,,0.00,0.0,cwc,2013-05-19 08:55:00,
2013-05-19 03:00:00,53.5,31.5,29.62,SW,216,0.0,-999.0,39,-99.99,,,0.00,0.0,cwc,2013-05-19 09:00:00,
2013-05-19 03:05:00,53.6,31.6,29.62,SW,216,0.0,-999.0,39,-99.99,,,0.00,0.0,cwc,2013-05-19 09:05:00,
2013-05-19 03:10:00,53.6,31.6,29.62,SW,216,0.0,-999.0,39,-99.99,,,0.00,0.0,cwc,2013-05-19 09:10:00,
2013-05-19 03:15:00,53.7,31.7,29.62,SW,215,0.0,-999.0,39,-99.99,,,0.00,0.0,cwc,2013-05-19 09:15:00,
2013-05-19 03:20:00,53.9,31.9,29.62,SW,216,0.0,-999.0,39,-99.99,,,0.00,0.0,cwc,2013-05-19 09:20:00,
2013-05-19 03:25:00,54.2,32.2,29.62,SW,216,0.0,-999.0,39,-99.99,,,0.00,0.0,cwc,2013-05-19 09:25:00,
2013-05-19 03:30:00,54.5,32.5,29.62,SW,216,0.0,-999.0,39,-99.99,,,0.00,0.0,cwc,2013-05-19 09:30:00,
2013-05-19 03:35:00,54.5,32.5,29.62,SW,215,0.0,-999.0,39,-99.99,,,0.00,0.0,cwc,2013-05-19 09:35:00,
2013-05-19 03:40:00,54.5,32.5,29.62,SW,216,0.0,-999.0,39,-99.99,,,0.00,0.0,cwc,2013-05-19 09:40:00,
2013-05-19 03:45:00,54.5,32.2,29.62,SW,216,0.0,-999.0,38,-99.99,,,0.00,0.0,cwc,2013-05-19 09:45:00,
2013-05-19 03:50:00,54.3,32.0,29.62,SW,215,0.0,-999.0,38,-99.99,,,0.00,0.0,cwc,2013-05-19 09:50:00,
2013-05-19 03:55:00,54.3,32.0,29.62,SW,216,0.0,-999.0,38,-99.99,,,0.00,0.0,cwc,2013-05-19 09:55:00,
2013-05-19 04:00:00,54.3,32.7,29.62,SW,216,0.0,-999.0,40,-99.99,,,0.00,0.0,cwc,2013-05-19 10:00:00,
2013-05-19 04:05:00,54.1,32.1,29.62,SW,216,0.0,-999.0,39,-99.99,,,0.00,0.0,cwc,2013-05-19 10:05:00,
2013-05-19 04:10:00,53.8,31.8,29.62,SW,215,0.0,-999.0,39,-99.99,,,0.00,0.0,cwc,2013-05-19 10:10:00,
2013-05-19 04:15:00,53.6,32.0,29.62,SW,215,0.0,-999.0,40,-99.99,,,0.00,0.0,cwc,2013-05-19 10:15:00,
2013-05-19 04:20:00,53.5,31.5,29.62,SW,216,0.0,-999.0,39,-99.99,,,0.00,0.0,cwc,2013-05-19 10:20:00,
2013-05-19 04:25:00,53.3,31.7,29.62,SW,215,0.0,-999.0,40,-99.99,,,0.00,0.0,cwc,2013-05-19 10:25:00,
2013-05-19 04:30:00,53.2,31.6,29.62,SW,215,0.0,-999.0,40,-99.99,,,0.00,0.0,cwc,2013-05-19 10:30:00,
2013-05-19 04:35:00,53.0,31.8,29.62,SW,216,0.0,-999.0,41,-99.99,,,0.00,0.0,cwc,2013-05-19 10:35:00,
2013-05-19 04:40:00,52.8,31.6,29.62,SW,216,0.0,-999.0,41,-99.99,,,0.00,0.0,cwc,2013-05-19 10:40:00,
2013-05-19 04:45:00,52.6,31.7,29.63,SW,216,0.0,-999.0,42,-99.99,,,0.00,0.0,cwc,2013-05-19 10:45:00,
2013-05-19 04:50:00,52.4,31.5,29.63,SW,216,0.0,-999.0,42,-99.99,,,0.00,0.0,cwc,2013-05-19 10:50:00,
2013-05-19 05:00:00,52.1,31.2,29.63,SW,216,0.0,-999.0,42,-99.99,,,0.00,0.0,cwc,2013-05-19 11:00:00,
2013-05-19 05:05:00,51.9,31.0,29.63,SW,216,0.0,-999.0,42,-99.99,,,0.00,0.0,cwc,2013-05-19 11:05:00,
2013-05-19 05:10:00,51.9,31.0,29.63,SW,216,0.0,-999.0,42,-99.99,,,0.00,0.0,cwc,2013-05-19 11:10:00,
2013-05-19 05:15:00,52.1,31.2,29.63,SW,216,0.0,-999.0,42,-99.99,,,0.00,0.0,cwc,2013-05-19 11:15:00,
2013-05-19 05:20:00,52.1,31.6,29.63,SW,216,0.0,-999.0,43,-99.99,,,0.00,0.0,cwc,2013-05-19 11:20:00,
2013-05-19 05:25:00,51.9,31.7,29.63,SW,216,0.0,-999.0,44,-99.99,,,0.00,0.0,cwc,2013-05-19 11:25:00,
2013-05-19 05:30:00,51.7,31.2,29.64,SW,215,0.0,-999.0,43,-99.99,,,0.00,0.0,cwc,2013-05-19 11:30:00,
2013-05-19 05:35:00,51.5,30.6,29.64,SW,216,3.0,-999.0,42,-99.99,,,0.00,0.0,cwc,2013-05-19 11:35:00,
2013-05-19 05:40:00,51.8,30.9,29.64,SW,218,1.0,-999.0,42,-99.99,,,0.00,0.0,cwc,2013-05-19 11:40:00,
2013-05-19 05:50:00,52.6,31.4,29.64,SW,218,0.0,-999.0,41,-99.99,,,0.00,0.0,cwc,2013-05-19 11:50:00,
2013-05-19 05:55:00,52.8,31.6,29.64,SW,218,0.0,-999.0,41,-99.99,,,0.00,0.0,cwc,2013-05-19 11:55:00,
2013-05-19 06:00:00,52.9,31.7,29.64,SW,218,3.0,-999.0,41,-99.99,,,0.00,0.0,cwc,2013-05-19 12:00:00,
2013-05-19 06:05:00,53.1,31.5,29.64,SW,218,5.0,-999.0,40,-99.99,,,0.00,5.0,cwc,2013-05-19 12:05:00,
2013-05-19 06:10:00,53.3,31.7,29.64,SW,219,0.0,-999.0,40,-99.99,,,0.00,11.0,cwc,2013-05-19 12:10:00,
2013-05-19 06:15:00,53.2,31.6,29.63,SW,219,0.0,-999.0,40,-99.99,,,0.00,11.0,cwc,2013-05-19 12:15:00,
2013-05-19 06:20:00,53.3,31.7,29.63,SW,219,2.0,-999.0,40,-99.99,,,0.00,11.0,cwc,2013-05-19 12:20:00,
2013-05-19 06:25:00,53.1,31.5,29.63,SW,218,3.0,-999.0,40,-99.99,,,0.00,11.0,cwc,2013-05-19 12:25:00,
2013-05-19 06:30:00,53.0,31.4,29.63,SW,219,3.0,-999.0,40,-99.99,,,0.00,9.0,cwc,2013-05-19 12:30:00,
2013-05-19 06:35:00,53.0,31.4,29.63,SW,219,2.0,-999.0,40,-99.99,,,0.00,11.0,cwc,2013-05-19 12:35:00,
2013-05-19 06:45:00,53.1,31.5,29.64,SW,219,3.0,-999.0,40,-99.99,,,0.00,25.0,cwc,2013-05-19 12:45:00,
2013-05-19 06:50:00,53.3,31.7,29.64,SW,219,0.0,-999.0,40,-99.99,,,0.00,32.0,cwc,2013-05-19 12:50:00,
2013-05-19 06:55:00,53.3,33.1,29.64,SW,219,0.0,-999.0,44,-99.99,,,0.00,46.0,cwc,2013-05-19 12:55:00,
2013-05-19 07:00:00,52.8,32.3,29.64,SW,218,0.0,-999.0,43,-99.99,,,0.00,40.0,cwc,2013-05-19 13:00:00,
2013-05-19 07:05:00,52.4,32.2,29.64,SW,218,0.0,-999.0,44,-99.99,,,0.00,44.0,cwc,2013-05-19 13:05:00,
2013-05-19 07:10:00,52.1,32.3,29.64,SW,219,0.0,-999.0,45,-99.99,,,0.00,39.0,cwc,2013-05-19 13:10:00,
2013-05-19 07:15:00,51.8,32.4,29.64,SW,219,0.0,-999.0,46,-99.99,,,0.00,44.0,cwc,2013-05-19 13:15:00,
2013-05-19 07:20:00,51.6,32.5,29.65,SW,218,0.0,-999.0,47,-99.99,,,0.00,32.0,cwc,2013-05-19 13:20:00,
2013-05-19 07:25:00,51.4,32.3,29.65,SW,219,0.0,-999.0,47,-99.99,,,0.00,39.0,cwc,2013-05-19 13:25:00,
2013-05-19 07:30:00,51.4,32.0,29.65,SW,219,0.0,-999.0,46,-99.99,,,0.00,67.0,cwc,2013-05-19 13:30:00,
2013-05-19 07:35:00,51.4,31.6,29.65,SW,219,0.0,-999.0,45,-99.99,,,0.00,93.0,cwc,2013-05-19 13:35:00,
2013-05-19 07:40:00,51.5,32.1,29.65,SW,218,0.0,-999.0,46,-99.99,,,0.00,77.0,cwc,2013-05-19 13:40:00,
2013-05-19 07:50:00,52.1,33.4,29.65,SW,219,0.0,-999.0,48,-99.99,,,0.00,83.0,cwc,2013-05-19 13:50:00,
2013-05-19 07:55:00,52.3,32.9,29.65,SW,219,0.0,-999.0,46,-99.99,,,0.00,97.0,cwc,2013-05-19 13:55:00,
2013-05-19 08:00:00,52.6,33.5,29.65,SW,219,0.0,-999.0,47,-99.99,,,0.00,102.0,cwc,2013-05-19 14:00:00,
2013-05-19 08:05:00,52.9,32.7,29.65,SW,219,0.0,-999.0,44,-99.99,,,0.00,114.0,cwc,2013-05-19 14:05:00,
2013-05-19 08:10:00,53.2,33.4,29.65,SW,219,0.0,-999.0,45,-99.99,,,0.00,102.0,cwc,2013-05-19 14:10:00,
2013-05-19 08:15:00,53.5,33.0,29.64,SW,218,0.0,-999.0,43,-99.99,,,0.00,116.0,cwc,2013-05-19 14:15:00,
2013-05-19 08:20:00,53.8,32.9,29.64,SW,219,0.0,-999.0,42,-99.99,,,0.00,148.0,cwc,2013-05-19 14:20:00,
2013-05-19 08:25:00,54.1,32.9,29.65,SW,219,0.0,-999.0,41,-99.99,,,0.00,128.0,cwc,2013-05-19 14:25:00,
2013-05-19 08:30:00,54.5,33.6,29.65,SW,219,0.0,-999.0,42,-99.99,,,0.00,476.0,cwc,2013-05-19 14:30:00,
2013-05-19 08:35:00,55.1,33.9,29.65,SW,219,0.0,-999.0,41,-99.99,,,0.00,174.0,cwc,2013-05-19 14:35:00,
2013-05-19 08:40:00,55.8,33.5,29.65,SW,219,0.0,-999.0,38,-99.99,,,0.00,218.0,cwc,2013-05-19 14:40:00,
2013-05-19 08:45:00,56.1,33.8,29.65,South,175,7.0,-999.0,38,-99.99,,,0.00,239.0,cwc,2013-05-19 14:45:00,
2013-05-19 08:50:00,56.7,34.4,29.65,South,184,6.0,-999.0,38,-99.99,,,0.00,619.0,cwc,2013-05-19 14:50:00,
2013-05-19 08:55:00,57.4,34.4,29.65,SSW,192,6.0,-999.0,36,-99.99,,,0.00,666.0,cwc,2013-05-19 14:55:00,
2013-05-19 09:00:00,57.9,34.5,29.65,SW,226,8.0,-999.0,35,-99.99,,,0.00,490.0,cwc,2013-05-19 15:00:00,
2013-05-19 09:05:00,58.0,34.6,29.65,SW,232,9.0,-999.0,35,-99.99,,,0.00,622.0,cwc,2013-05-19 15:05:00,
2013-05-19 09:10:00,58.2,34.8,29.65,SW,236,7.0,-999.0,35,-99.99,,,0.00,234.0,cwc,2013-05-19 15:10:00,
2013-05-19 09:15:00,58.1,34.3,29.65,SW,229,6.0,-999.0,34,-99.99,,,0.00,404.0,cwc,2013-05-19 15:15:00,
2013-05-19 09:20:00,58.4,34.6,29.65,West,268,8.0,-999.0,34,-99.99,,,0.00,721.0,cwc,2013-05-19 15:20:00,
2013-05-19 09:25:00,58.7,34.6,29.65,WSW,253,3.0,-999.0,33,-99.99,,,0.00,461.0,cwc,2013-05-19 15:25:00,
2013-05-19 09:30:00,59.0,34.9,29.65,SW,229,1.0,-999.0,33,-99.99,,,0.00,522.0,cwc,2013-05-19 15:30:00,
2013-05-19 09:35:00,59.0,35.2,29.64,SW,236,3.0,-999.0,34,-99.99,,,0.00,237.0,cwc,2013-05-19 15:35:00,
2013-05-19 09:40:00,59.0,34.9,29.64,WSW,248,4.0,-999.0,33,-99.99,,,0.00,130.0,cwc,2013-05-19 15:40:00,
2013-05-19 09:45:00,59.0,34.5,29.64,SW,225,5.0,-999.0,32,-99.99,,,0.00,144.0,cwc,2013-05-19 15:45:00,
2013-05-19 09:50:00,59.0,34.9,29.63,SW,229,4.0,-999.0,33,-99.99,,,0.00,234.0,cwc,2013-05-19 15:50:00,
2013-05-19 09:55:00,59.0,34.9,29.63,SW,229,2.0,-999.0,33,-99.99,,,0.00,197.0,cwc,2013-05-19 15:55:00,
2013-05-19 10:00:00,59.7,35.2,29.63,NNE,24,4.0,-999.0,32,-99.99,,,0.00,657.0,cwc,2013-05-19 16:00:00,
2013-05-19 10:05:00,61.0,36.2,29.63,NNE,22,1.0,-999.0,31,-99.99,,,0.00,752.0,cwc,2013-05-19 16:05:00,
2013-05-19 10:10:00,61.6,36.0,29.63,WSW,249,0.0,-999.0,29,-99.99,,,0.00,821.0,cwc,2013-05-19 16:10:00,
2013-05-19 10:15:00,62.0,36.8,29.63,SW,217,3.0,-999.0,30,-99.99,,,0.00,425.0,cwc,2013-05-19 16:15:00,
2013-05-19 10:20:00,62.1,36.5,29.62,SW,221,6.0,-999.0,29,-99.99,,,0.00,330.0,cwc,2013-05-19 16:20:00,
2013-05-19 10:25:00,62.3,36.7,29.62,ENE,67,9.0,-999.0,29,-99.99,,,0.00,770.0,cwc,2013-05-19 16:25:00,
2013-05-19 10:30:00,63.0,37.1,29.62,SSW,204,10.0,-999.0,28,-99.99,,,0.00,875.0,cwc,2013-05-19 16:30:00,
2013-05-19 10:35:00,63.2,37.6,29.62,SW,232,6.0,-999.0,29,-99.99,,,0.00,988.0,cwc,2013-05-19 16:35:00,
2013-05-19 10:45:00,62.8,37.6,29.61,SSW,202,6.0,-999.0,30,-99.99,,,0.00,870.0,cwc,2013-05-19 16:45:00,
2013-05-19 10:50:00,62.8,37.2,29.61,SSW,202,4.0,-999.0,29,-99.99,,,0.00,1060.0,cwc,2013-05-19 16:50:00,
2013-05-19 10:55:00,63.4,37.5,29.61,NE,50,1.0,-999.0,28,-99.99,,,0.00,988.0,cwc,2013-05-19 16:55:00,
2013-05-19 11:00:00,64.1,38.2,29.61,SSE,164,3.0,-999.0,28,-99.99,,,0.00,1125.0,cwc,2013-05-19 17:00:00,
2013-05-19 11:05:00,64.9,38.6,29.62,WSW,237,3.0,-999.0,27,-99.99,,,0.00,673.0,cwc,2013-05-19 17:05:00,
2013-05-19 11:10:00,64.8,38.5,29.61,SW,232,2.0,-999.0,27,-99.99,,,0.00,712.0,cwc,2013-05-19 17:10:00,
2013-05-19 11:15:00,65.2,38.9,29.61,SSW,206,4.0,-999.0,27,-99.99,,,0.00,805.0,cwc,2013-05-19 17:15:00,
2013-05-19 11:20:00,64.7,38.1,29.62,SW,229,6.0,-999.0,26,-99.99,,,0.00,1025.0,cwc,2013-05-19 17:20:00,
2013-05-19 11:25:00,64.5,37.9,29.61,NW,306,5.0,-999.0,26,-99.99,,,0.00,960.0,cwc,2013-05-19 17:25:00,
2013-05-19 11:30:00,64.3,37.3,29.61,SW,234,1.0,-999.0,25,-99.99,,,0.00,1000.0,cwc,2013-05-19 17:30:00,
2013-05-19 11:35:00,64.8,37.8,29.61,SW,232,3.0,-999.0,25,-99.99,,,0.00,1042.0,cwc,2013-05-19 17:35:00,
2013-05-19 11:40:00,65.1,37.7,29.61,SW,222,2.0,-999.0,24,-99.99,,,0.00,1063.0,cwc,2013-05-19 17:40:00,
2013-05-19 11:45:00,65.5,37.8,29.61,SW,223,11.0,-999.0,23,-99.99,,,0.00,1020.0,cwc,2013-05-19 17:45:00,
2013-05-19 11:50:00,65.4,38.0,29.60,SW,219,5.0,-999.0,24,-99.99,,,0.00,1018.0,cwc,2013-05-19 17:50:00,
2013-05-19 11:55:00,65.6,37.9,29.61,SSW,199,7.0,-999.0,23,-99.99,,,0.00,995.0,cwc,2013-05-19 17:55:00,
2013-05-19 12:00:00,65.6,37.9,29.60,West,263,4.0,-999.0,23,-99.99,,,0.00,891.0,cwc,2013-05-19 18:00:00,
2013-05-19 12:05:00,65.7,37.6,29.60,WSW,250,5.0,-999.0,22,-99.99,,,0.00,1088.0,cwc,2013-05-19 18:05:00,
2013-05-19 12:10:00,65.7,38.0,29.59,SW,230,11.0,-999.0,23,-99.99,,,0.00,1129.0,cwc,2013-05-19 18:10:00,
2013-05-19 12:15:00,65.9,38.2,29.59,SW,232,10.0,-999.0,23,-99.99,,,0.00,1129.0,cwc,2013-05-19 18:15:00,
2013-05-19 12:20:00,66.5,38.8,29.59,ENE,71,1.0,-999.0,23,-99.99,,,0.00,1104.0,cwc,2013-05-19 18:20:00,
2013-05-19 12:25:00,67.0,38.9,29.58,SSE,154,3.0,-999.0,22,-99.99,,,0.00,1055.0,cwc,2013-05-19 18:25:00,
2013-05-19 12:30:00,67.6,39.2,29.58,SSW,196,12.0,-999.0,21,-99.99,,,0.00,1083.0,cwc,2013-05-19 18:30:00,
2013-05-19 12:35:00,67.7,39.3,29.58,SSW,207,12.0,-999.0,21,-99.99,,,0.00,1176.0,cwc,2013-05-19 18:35:00,
2013-05-19 12:40:00,67.7,39.6,29.57,SW,234,5.0,-999.0,22,-99.99,,,0.00,1046.0,cwc,2013-05-19 18:40:00,
2013-05-19 12:45:00,68.4,40.0,29.57,SSE,162,3.0,-999.0,21,-99.99,,,0.00,1046.0,cwc,2013-05-19 18:45:00,
2013-05-19 12:50:00,68.4,40.0,29.56,NNW,346,1.0,-999.0,21,-99.99,,,0.00,306.0,cwc,2013-05-19 18:50:00,
2013-05-19 12:55:00,68.5,40.1,29.56,WSW,246,9.0,-999.0,21,-99.99,,,0.00,1375.0,cwc,2013-05-19 18:55:00,
2013-05-19 13:00:00,68.4,40.0,29.56,ENE,63,1.0,-999.0,21,-99.99,,,0.00,1252.0,cwc,2013-05-19 19:00:00,
2013-05-19 13:05:00,68.7,39.9,29.57,West,281,15.0,-999.0,20,-99.99,,,0.00,1027.0,cwc,2013-05-19 19:05:00,
2013-05-19 13:10:00,68.2,40.1,29.56,NW,304,5.0,-999.0,22,-99.99,,,0.00,255.0,cwc,2013-05-19 19:10:00,
2013-05-19 13:15:00,66.8,39.4,29.56,SW,218,2.0,-999.0,24,-99.99,,,0.00,325.0,cwc,2013-05-19 19:15:00,
2013-05-19 13:20:00,66.7,39.3,29.56,SW,217,3.0,-999.0,24,-99.99,,,0.00,408.0,cwc,2013-05-19 19:20:00,
2013-05-19 13:25:00,66.4,39.0,29.56,SW,226,13.0,-999.0,24,-99.99,,,0.00,323.0,cwc,2013-05-19 19:25:00,
2013-05-19 13:30:00,65.7,38.3,29.56,SSW,213,3.0,-999.0,24,-99.99,,,0.00,311.0,cwc,2013-05-19 19:30:00,
2013-05-19 13:35:00,65.6,37.9,29.56,South,188,12.0,-999.0,23,-99.99,,,0.00,304.0,cwc,2013-05-19 19:35:00,
2013-05-19 13:40:00,65.8,38.8,29.56,SSW,196,6.0,-999.0,25,-99.99,,,0.00,1137.0,cwc,2013-05-19 19:40:00,
2013-05-19 13:45:00,66.0,38.6,29.56,SW,223,7.0,-999.0,24,-99.99,,,0.00,1227.0,cwc,2013-05-19 19:45:00,
2013-05-19 13:50:00,66.4,38.7,29.56,SSW,209,6.0,-999.0,23,-99.99,,,0.00,355.0,cwc,2013-05-19 19:50:00,
2013-05-19 13:55:00,66.6,37.8,29.56,SW,226,11.0,-999.0,20,-99.99,,,0.00,422.0,cwc,2013-05-19 19:55:00,
2013-05-19 14:00:00,66.5,37.3,29.57,WSW,256,10.0,-999.0,19,-99.99,,,0.00,366.0,cwc,2013-05-19 20:00:00,
2013-05-19 14:05:00,66.7,37.2,29.56,SSW,207,7.0,-999.0,18,-99.99,,,0.00,1252.0,cwc,2013-05-19 20:05:00,
2013-05-19 14:10:00,67.5,38.3,29.57,SW,215,9.0,-999.0,19,-99.99,,,0.00,1078.0,cwc,2013-05-19 20:10:00,
2013-05-19 14:15:00,68.3,38.4,29.56,SSW,202,9.0,-999.0,17,-99.99,,,0.00,1020.0,cwc,2013-05-19 20:15:00,
2013-05-19 14:20:00,68.5,38.3,29.57,SW,216,16.0,-999.0,16,-99.99,,,0.00,1028.0,cwc,2013-05-19 20:20:00,
2013-05-19 14:25:00,68.5,38.6,29.56,SW,219,9.0,-999.0,17,-99.99,,,0.00,1049.0,cwc,2013-05-19 20:25:00,
2013-05-19 14:30:00,69.2,39.7,29.56,South,181,8.0,-999.0,18,-99.99,,,0.00,1048.0,cwc,2013-05-19 20:30:00,
2013-05-19 14:35:00,69.2,39.3,29.56,WSW,246,10.0,-999.0,17,-99.99,,,0.00,1014.0,cwc,2013-05-19 20:35:00,
2013-05-19 14:40:00,69.3,39.8,29.56,WSW,237,6.0,-999.0,18,-99.99,,,0.00,1041.0,cwc,2013-05-19 20:40:00,
2013-05-19 14:45:00,69.2,39.7,29.55,WSW,248,1.0,-999.0,18,-99.99,,,0.00,1123.0,cwc,2013-05-19 20:45:00,
2013-05-19 14:50:00,69.6,39.0,29.56,WSW,255,12.0,-999.0,15,-99.99,,,0.00,1099.0,cwc,2013-05-19 20:50:00,
2013-05-19 14:55:00,70.1,39.1,29.55,SW,235,5.0,-999.0,14,-99.99,,,0.00,306.0,cwc,2013-05-19 20:55:00,
2013-05-19 15:00:00,69.8,39.2,29.55,WSW,249,7.0,-999.0,15,-99.99,,,0.00,1123.0,cwc,2013-05-19 21:00:00,
2013-05-19 15:05:00,69.6,39.4,29.55,WSW,238,5.0,-999.0,16,-99.99,,,0.00,1037.0,cwc,2013-05-19 21:05:00,
2013-05-19 15:10:00,69.0,38.4,29.55,SW,220,3.0,-999.0,15,-99.99,,,0.00,257.0,cwc,2013-05-19 21:10:00,
2013-05-19 15:15:00,68.9,38.7,29.55,WSW,240,15.0,-999.0,16,-99.99,,,0.00,1023.0,cwc,2013-05-19 21:15:00,
2013-05-19 15:20:00,69.0,38.8,29.55,WSW,238,6.0,-999.0,16,-99.99,,,0.00,512.0,cwc,2013-05-19 21:20:00,
2013-05-19 15:25:00,69.5,38.9,29.55,SW,221,11.0,-999.0,15,-99.99,,,0.00,896.0,cwc,2013-05-19 21:25:00,
2013-05-19 15:30:00,69.6,39.0,29.55,WSW,237,10.0,-999.0,15,-99.99,,,0.00,860.0,cwc,2013-05-19 21:30:00,
2013-05-19 15:35:00,70.1,39.1,29.54,SSW,211,14.0,-999.0,14,-99.99,,,0.00,810.0,cwc,2013-05-19 21:35:00,
2013-05-19 15:40:00,70.2,39.2,29.54,WSW,252,6.0,-999.0,14,-99.99,,,0.00,858.0,cwc,2013-05-19 21:40:00,
2013-05-19 15:45:00,70.4,39.4,29.54,SW,234,13.0,-999.0,14,-99.99,,,0.00,896.0,cwc,2013-05-19 21:45:00,
2013-05-19 15:50:00,70.1,39.1,29.53,ENE,63,5.0,-999.0,14,-99.99,,,0.00,810.0,cwc,2013-05-19 21:50:00,
2013-05-19 15:55:00,70.3,39.3,29.53,SW,221,7.0,-999.0,14,-99.99,,,0.00,793.0,cwc,2013-05-19 21:55:00,
2013-05-19 16:00:00,70.2,39.2,29.54,SSE,156,5.0,-999.0,14,-99.99,,,0.00,777.0,cwc,2013-05-19 22:00:00,
2013-05-19 16:05:00,70.5,39.5,29.54,SW,215,6.0,-999.0,14,-99.99,,,0.00,766.0,cwc,2013-05-19 22:05:00,
2013-05-19 16:10:00,70.4,39.4,29.54,SW,230,10.0,-999.0,14,-99.99,,,0.00,749.0,cwc,2013-05-19 22:10:00,
2013-05-19 16:15:00,70.1,39.1,29.55,WSW,246,7.0,-999.0,14,-99.99,,,0.00,744.0,cwc,2013-05-19 22:15:00,
2013-05-19 16:20:00,70.2,39.2,29.54,SSW,203,3.0,-999.0,14,-99.99,,,0.00,754.0,cwc,2013-05-19 22:20:00,
2013-05-19 16:25:00,70.5,39.5,29.55,SW,226,16.0,-999.0,14,-99.99,,,0.00,756.0,cwc,2013-05-19 22:25:00,
2013-05-19 16:30:00,70.4,39.4,29.55,SW,216,4.0,-999.0,14,-99.99,,,0.00,749.0,cwc,2013-05-19 22:30:00,
2013-05-19 16:40:00,70.4,39.8,29.54,West,269,21.0,-999.0,15,-99.99,,,0.00,693.0,cwc,2013-05-19 22:40:00,
2013-05-19 16:45:00,70.6,40.0,29.54,WSW,246,6.0,-999.0,15,-99.99,,,0.00,659.0,cwc,2013-05-19 22:45:00,
2013-05-19 16:50:00,70.7,40.1,29.55,SSW,210,8.0,-999.0,15,-99.99,,,0.00,636.0,cwc,2013-05-19 22:50:00,
2013-05-19 16:55:00,70.1,39.9,29.54,WSW,250,5.0,-999.0,16,-99.99,,,0.00,605.0,cwc,2013-05-19 22:55:00,
2013-05-19 17:00:00,69.8,39.6,29.54,West,261,12.0,-999.0,16,-99.99,,,0.00,582.0,cwc,2013-05-19 23:00:00,
2013-05-19 17:05:00,69.6,39.4,29.55,West,273,4.0,-999.0,16,-99.99,,,0.00,563.0,cwc,2013-05-19 23:05:00,
2013-05-19 17:10:00,69.3,39.4,29.55,WSW,238,10.0,-999.0,17,-99.99,,,0.00,545.0,cwc,2013-05-19 23:10:00,
2013-05-19 17:15:00,69.0,39.1,29.55,West,276,3.0,-999.0,17,-99.99,,,0.00,531.0,cwc,2013-05-19 23:15:00,
2013-05-19 17:20:00,69.2,39.3,29.55,WSW,244,6.0,-999.0,17,-99.99,,,0.00,517.0,cwc,2013-05-19 23:20:00,
2013-05-19 17:25:00,69.1,39.2,29.55,NW,323,4.0,-999.0,17,-99.99,,,0.00,497.0,cwc,2013-05-19 23:25:00,
2013-05-19 17:30:00,68.7,38.5,29.55,SW,227,9.0,-999.0,16,-99.99,,,0.00,476.0,cwc,2013-05-19 23:30:00,
2013-05-19 17:35:00,68.1,38.2,29.55,SW,219,7.0,-999.0,17,-99.99,,,0.00,464.0,cwc,2013-05-19 23:35:00,
2013-05-19 17:40:00,68.2,38.3,29.55,SW,233,0.0,-999.0,17,-99.99,,,0.00,448.0,cwc,2013-05-19 23:40:00,
2013-05-19 17:45:00,68.6,38.7,29.55,WNW,285,0.0,-999.0,17,-99.99,,,0.00,429.0,cwc,2013-05-19 23:45:00,
2013-05-19 17:50:00,68.5,38.6,29.55,SW,217,6.0,-999.0,17,-99.99,,,0.00,346.0,cwc,2013-05-19 23:50:00,
2013-05-19 17:55:00,68.0,38.5,29.55,WSW,251,6.0,-999.0,18,-99.99,,,0.00,315.0,cwc,2013-05-19 23:55:00,
2013-05-19 18:00:00,67.7,38.2,29.56,SW,234,6.0,-999.0,18,-99.99,,,0.00,381.0,cwc,2013-05-20 00:00:00,
2013-05-19 18:05:00,67.4,37.9,29.55,WSW,250,4.0,-999.0,18,-99.99,,,0.00,350.0,cwc,2013-05-20 00:05:00,
2013-05-19 18:10:00,67.4,37.9,29.55,NE,45,4.0,-999.0,18,-99.99,,,0.00,336.0,cwc,2013-05-20 00:10:00,
2013-05-19 18:15:00,67.4,38.2,29.56,SSW,205,2.0,-999.0,19,-99.99,,,0.00,206.0,cwc,2013-05-20 00:15:00,
2013-05-19 18:20:00,67.2,38.0,29.56,SW,234,6.0,-999.0,19,-99.99,,,0.00,74.0,cwc,2013-05-20 00:20:00,
2013-05-19 18:25:00,66.8,38.0,29.57,WSW,258,17.0,-999.0,20,-99.99,,,0.00,63.0,cwc,2013-05-20 00:25:00,
2013-05-19 18:30:00,66.0,37.2,29.57,WSW,254,4.0,-999.0,20,-99.99,,,0.00,70.0,cwc,2013-05-20 00:30:00,
2013-05-19 18:35:00,65.4,37.0,29.57,SW,223,7.0,-999.0,21,-99.99,,,0.00,65.0,cwc,2013-05-20 00:35:00,
2013-05-19 18:40:00,65.0,36.2,29.58,South,182,9.0,-999.0,20,-99.99,,,0.00,81.0,cwc,2013-05-20 00:40:00,
2013-05-19 18:45:00,64.8,36.0,29.58,SW,217,8.0,-999.0,20,-99.99,,,0.00,93.0,cwc,2013-05-20 00:45:00,
2013-05-19 18:50:00,64.6,35.8,29.58,SW,226,9.0,-999.0,20,-99.99,,,0.00,91.0,cwc,2013-05-20 00:50:00,
2013-05-19 18:55:00,64.5,35.7,29.58,SW,232,17.0,-999.0,20,-99.99,,,0.00,88.0,cwc,2013-05-20 00:55:00,
2013-05-19 19:00:00,64.3,35.9,29.58,WSW,239,11.0,-999.0,21,-99.99,,,0.00,76.0,cwc,2013-05-20 01:00:00,
2013-05-19 19:05:00,64.1,35.7,29.58,WSW,254,8.0,-999.0,21,-99.99,,,0.00,70.0,cwc,2013-05-20 01:05:00,
2013-05-19 19:10:00,64.0,35.6,29.58,WSW,244,13.0,-999.0,21,-99.99,,,0.00,79.0,cwc,2013-05-20 01:10:00,
2013-05-19 19:15:00,63.9,35.5,29.57,WSW,257,7.0,-999.0,21,-99.99,,,0.00,60.0,cwc,2013-05-20 01:15:00,
2013-05-19 19:20:00,63.8,35.0,29.57,WSW,252,5.0,-999.0,20,-99.99,,,0.00,40.0,cwc,2013-05-20 01:20:00,
2013-05-19 19:25:00,63.8,35.0,29.58,SW,236,4.0,-999.0,20,-99.99,,,0.00,26.0,cwc,2013-05-20 01:25:00,
2013-05-19 19:30:00,63.6,34.8,29.58,SW,226,2.0,-999.0,20,-99.99,,,0.00,21.0,cwc,2013-05-20 01:30:00,
2013-05-19 19:35:00,63.4,34.6,29.58,West,261,3.0,-999.0,20,-99.99,,,0.00,19.0,cwc,2013-05-20 01:35:00,
2013-05-19 19:40:00,63.2,34.8,29.59,SW,236,8.0,-999.0,21,-99.99,,,0.00,16.0,cwc,2013-05-20 01:40:00,
2013-05-19 19:45:00,63.0,34.9,29.59,SSW,207,8.0,-999.0,22,-99.99,,,0.00,12.0,cwc,2013-05-20 01:45:00,
2013-05-19 19:55:00,62.4,34.7,29.60,SW,225,0.0,-999.0,23,-99.99,,,0.00,9.0,cwc,2013-05-20 01:55:00,
2013-05-19 20:00:00,62.2,34.5,29.60,SW,226,4.0,-999.0,23,-99.99,,,0.00,7.0,cwc,2013-05-20 02:00:00,
2013-05-19 20:10:00,61.8,34.8,29.61,WSW,242,7.0,-999.0,25,-99.99,,,0.00,0.0,cwc,2013-05-20 02:10:00,
2013-05-19 20:15:00,61.7,34.7,29.61,SW,225,4.0,-999.0,25,-99.99,,,0.00,0.0,cwc,2013-05-20 02:15:00,
2013-05-19 20:20:00,61.5,34.1,29.62,SW,225,7.0,-999.0,24,-99.99,,,0.00,0.0,cwc,2013-05-20 02:20:00,
2013-05-19 20:25:00,61.4,34.0,29.62,SW,222,2.0,-999.0,24,-99.99,,,0.00,0.0,cwc,2013-05-20 02:25:00,
2013-05-19 20:30:00,61.3,33.9,29.62,SW,223,0.0,-999.0,24,-99.99,,,0.00,0.0,cwc,2013-05-20 02:30:00,
2013-05-19 20:35:00,61.2,33.8,29.62,SW,224,6.0,-999.0,24,-99.99,,,0.00,0.0,cwc,2013-05-20 02:35:00,
2013-05-19 20:40:00,61.2,33.8,29.62,SW,222,6.0,-999.0,24,-99.99,,,0.00,0.0,cwc,2013-05-20 02:40:00,
2013-05-19 20:45:00,61.3,33.9,29.62,SW,232,6.0,-999.0,24,-99.99,,,0.00,0.0,cwc,2013-05-20 02:45:00,
2013-05-19 20:50:00,61.4,34.0,29.63,SW,236,4.0,-999.0,24,-99.99,,,0.00,0.0,cwc,2013-05-20 02:50:00,
2013-05-19 20:55:00,61.3,33.9,29.63,SW,236,3.0,-999.0,24,-99.99,,,0.00,0.0,cwc,2013-05-20 02:55:00,
2013-05-19 21:00:00,61.2,33.8,29.63,SW,234,6.0,-999.0,24,-99.99,,,0.00,0.0,cwc,2013-05-20 03:00:00,
2013-05-19 21:05:00,61.2,33.8,29.63,SW,229,3.0,-999.0,24,-99.99,,,0.00,0.0,cwc,2013-05-20 03:05:00,
2013-05-19 21:10:00,61.2,34.2,29.63,SW,229,1.0,-999.0,25,-99.99,,,0.00,0.0,cwc,2013-05-20 03:10:00,
2013-05-19 21:15:00,61.1,34.1,29.63,SW,229,1.0,-999.0,25,-99.99,,,0.00,0.0,cwc,2013-05-20 03:15:00,
2013-05-19 21:25:00,61.1,34.1,29.63,SW,231,1.0,-999.0,25,-99.99,,,0.00,0.0,cwc,2013-05-20 03:25:00,
2013-05-19 21:30:00,61.1,34.1,29.64,SW,230,1.0,-999.0,25,-99.99,,,0.00,0.0,cwc,2013-05-20 03:30:00,
2013-05-19 21:35:00,61.0,35.1,29.64,NE,41,5.0,-999.0,28,-99.99,,,0.00,0.0,cwc,2013-05-20 03:35:00,
2013-05-19 21:40:00,60.4,35.6,29.65,NNE,28,15.0,-999.0,31,-99.99,,,0.00,0.0,cwc,2013-05-20 03:40:00,
2013-05-19 21:45:00,59.5,35.0,29.65,NNE,32,8.0,-999.0,32,-99.99,,,0.00,0.0,cwc,2013-05-20 03:45:00,
2013-05-19 21:50:00,59.0,35.2,29.66,NNE,32,6.0,-999.0,34,-99.99,,,0.00,0.0,cwc,2013-05-20 03:50:00,
2013-05-19 21:55:00,58.4,35.0,29.66,NNE,25,7.0,-999.0,35,-99.99,,,0.00,0.0,cwc,2013-05-20 03:55:00,
2013-05-19 22:00:00,57.8,34.4,29.66,NNE,28,5.0,-999.0,35,-99.99,,,0.00,0.0,cwc,2013-05-20 04:00:00,
2013-05-19 22:05:00,57.4,34.0,29.66,NNE,32,7.0,-999.0,35,-99.99,,,0.00,0.0,cwc,2013-05-20 04:05:00,
2013-05-19 22:10:00,57.0,34.0,29.66,NNE,22,5.0,-999.0,36,-99.99,,,0.00,0.0,cwc,2013-05-20 04:10:00,
2013-05-19 22:15:00,56.7,33.7,29.66,NE,50,1.0,-999.0,36,-99.99,,,0.00,0.0,cwc,2013-05-20 04:15:00,
2013-05-19 22:20:00,56.5,33.5,29.65,NNE,13,9.0,-999.0,36,-99.99,,,0.00,0.0,cwc,2013-05-20 04:20:00,
2013-05-19 22:25:00,56.3,33.6,29.65,NNE,32,6.0,-999.0,37,-99.99,,,0.00,0.0,cwc,2013-05-20 04:25:00,
2013-05-19 22:30:00,56.0,33.3,29.66,NE,48,5.0,-999.0,37,-99.99,,,0.00,0.0,cwc,2013-05-20 04:30:00,
2013-05-19 22:40:00,55.6,32.9,29.66,NNE,24,0.0,-999.0,37,-99.99,,,0.00,0.0,cwc,2013-05-20 04:40:00,
2013-05-19 22:45:00,55.4,32.7,29.67,NNE,23,2.0,-999.0,37,-99.99,,,0.00,0.0,cwc,2013-05-20 04:45:00,
2013-05-19 22:50:00,55.2,32.5,29.67,NNE,17,4.0,-999.0,37,-99.99,,,0.00,0.0,cwc,2013-05-20 04:50:00,
2013-05-19 22:55:00,55.1,32.8,29.67,NNW,329,1.0,-999.0,38,-99.99,,,0.00,0.0,cwc,2013-05-20 04:55:00,
2013-05-19 23:00:00,55.0,32.7,29.66,NNW,329,2.0,-999.0,38,-99.99,,,0.00,0.0,cwc,2013-05-20 05:00:00,
2013-05-19 23:05:00,54.8,32.5,29.66,North,360,1.0,-999.0,38,-99.99,,,0.00,0.0,cwc,2013-05-20 05:05:00,
2013-05-19 23:10:00,54.6,32.3,29.66,North,360,1.0,-999.0,38,-99.99,,,0.00,0.0,cwc,2013-05-20 05:10:00,
2013-05-19 23:15:00,54.3,32.0,29.66,North,360,0.0,-999.0,38,-99.99,,,0.00,0.0,cwc,2013-05-20 05:15:00,
2013-05-19 23:20:00,54.1,32.1,29.66,North,360,0.0,-999.0,39,-99.99,,,0.00,0.0,cwc,2013-05-20 05:20:00,
2013-05-19 23:25:00,53.8,31.8,29.66,North,360,0.0,-999.0,39,-99.99,,,0.00,0.0,cwc,2013-05-20 05:25:00,
2013-05-19 23:30:00,53.5,31.5,29.66,North,360,0.0,-999.0,39,-99.99,,,0.00,0.0,cwc,2013-05-20 05:30:00,
2013-05-19 23:35:00,53.2,31.2,29.67,North,360,0.0,-999.0,39,-99.99,,,0.00,0.0,cwc,2013-05-20 05:35:00,
2013-05-19 23:40:00,53.1,31.5,29.67,North,360,1.0,-999.0,40,-99.99,,,0.00,0.0,cwc,2013-05-20 05:40:00,
2013-05-19 23:45:00,53.0,31.4,29.68,North,360,0.0,-999.0,40,-99.99,,,0.00,0.0,cwc,2013-05-20 05:45:00,
2013-05-19 23:50:00,53.1,31.5,29.68,North,360,0.0,-999.0,40,-99.99,,,0.00,0.0,cwc,2013-05-20 05:50:00,
2013-05-19 23:55:00,53.0,31.4,29.67,North,360,1.0,-999.0,40,-99.99,,,0.00,0.0,cwc,2013-05-20 05:55:00,